Location: Bílinka
(49.3579°N, 14.3767°E)
Time: 10:53:08
(UTC+00:00)

FENGYUN 1C DEB - Pass Details

Date: 27 February 2024
Orbit: 850 x 890 km, 98.8° (Epoch: 12 April)

Event Time Altitude Azimuth Distance (km) Brightness Sun altitude
Rises 05:14:50 0° 33° (NNE) 3,487 ? -6.5°
Reaches altitude 10° 05:19:29 10° 68° (ENE) 2,550 ? -5.8°
Maximum altitude 05:21:00 11° 83° (E) 2,476 ? -5.5°
Drops below altitude 10° 05:22:32 10° 99° (E) 2,551 ? -5.3°
Sets 05:27:09 0° 134° (SE) 3,489 ? -4.5°
